Showing default

TJS-24, 69235

Orbit data source: Space-Track

TJS-24, 69235 is a payload satellite owned by PLA SSF (CN) in HEO that was launched on Tue, 26 May 2026 UTC via a CHANG ZHENG 7A launch vehicle from the Wenchang Satellite Launch Center (WSC). Payload-class satellites include a variety of spacecraft equipped with specific instruments for various scientific and technological missions. These include communications satellites like Starlink; space stations such as the ISS; scientific satellites like the Hubble; Earth observation satellites from companies like Planet Labs, Umbra, and HawkEye 360; GPS; miniature CubeSats for education and research; and military/defense satellites.

Loading next visibility...
Identifier
69235, 2026-116A
Orbit
HEO
Country
Flag of CNCN / PRC
Related business
Manufacturer
SISE
Mission
Operational spacecraft
Bus & Motor
FY-4?, LAE
Mass
~5,000 kg wet, ~2,500 kg dry
Launch date (UTC)
2026-05-26 (2 weeks ago)
Launch vehicle
CHANG ZHENG 7A
Launch site
Wenchang Satellite Launch Center (WSC)
Object type
Payload
Rocket body
Debris
Shape & HBR
Unknown
Radar Cross Section
RCS unknown

Expand to show TLE details & history
Last TLE update: 2 weeks ago

TLE from 2 weeks ago
0 TJS-24
1 69235U 26116A   26146.91903053  .00005573 -37133-6  21296-3 0  9997
2 69235  19.5460 149.2488 7312999 179.4286 182.6145  2.27837712    23
Epoch: 2026-05-26T22:03Z
TLE epoch observation values (Epoch: 2026-05-26T22:03:24.237Z)
Latitude
-0.00018°
Longitude
-66.08217°
Altitude
35,827.78 km
Speed
1.597 km/s
True Right ascension
09h 57m 01s
True Declination
0° 00' 01"
Sunlit
Object was in daylight at epoch
Visualization orbit readout
Latitude
Unknown
Longitude
Unknown
Altitude
Unknown
Speed
Unknown
Apparent Right ascension
Unknown
Apparent Declination
Unknown
Sunlit
N/A
Visualization observer readout
Local Sidereal Time
02:50:12
Azimuth
Unknown
Elevation
Unknown
Doppler factor
Unknown
Orbital elements
Apogee altitude
35,866.828 km
Perigee altitude
178.339 km
Semi-major axis
24,400.721 km
Eccentricity
0.7313
Inclination
19.546°
RAAN
149.2488°
Arg. of periapsis
179.4286°
True anomaly
180.59499°
Mean anomaly
182.6145°
Eccentric anomaly
181.51021°
Mean motion
0.56943 °/min
Orbital period
632.21 mins
BSTAR
0.00021296
Loading maneuver chart data...
Computing Atmospheric mass density...
Loading historical data...
Loading historical data...
Loading historical data...
Loading historical data...
Loading historical data...
Loading historical data...
Loading historical data...
Other satellites on launch #116 in the year 2026 (2026-05-26 UTC)

Documentation

Showing up to 5 results
|